{"data":{"norad_id":57302,"intl_designator":"2023-096N","name":"STARLINK-30233","alt_names":[],"object_type":"PAYLOAD","status":"ACTIVE","operator":null,"country":"US","launch_date":"2023-07-10","launch_site_code":"AFETR","launch_vehicle":null,"mission":null,"orbit_class":"UNKNOWN","rcs_meters":null,"size_class":null,"mass_kg":null,"dimensions":null,"purposes":["comms"],"wikipedia_slug":null,"has_3d_model":false,"image_url":null,"decayed_at":null,"tle_current":{"epoch":"2026-05-25T01:03:29.745792Z","epoch_age_seconds":64475,"freshness":"FRESH","line1":"1 57302U 23096N   26145.04409428 -.00000619  00000+0 -12954-4 0  9998","line2":"2 57302  43.0007 152.0448 0001438 267.2797  92.7890 15.27586812158399","mean_motion":15.27586812,"eccentricity":0.0001438,"inclination_deg":43.0007,"raan_deg":152.0448,"arg_perigee_deg":267.2797,"mean_anomaly_deg":92.789,"bstar":-1.2954e-5,"rev_number":15839,"period_min":94.266328347956,"perigee_km":482.0420629094,"apogee_km":484.0153341643,"semimajor_km":6861.1656985368,"source":"CELESTRAK","updated_at":"2026-05-25T13:38:18.284552Z"}}}